User: anonymous   Login
Location: Unspecified
(0.0000°N, 0.0000°E)
Time: 22:09:12
(UTC+00:00)
Language:

DMSP F15 (USA 147) - Orbit

View from above orbital plane
View from above orbital plane
View from above satellite
View from above satellite

Ground track
Ground track

The orbit data is extracted from the following two-line orbital elements,

1 25991U 99067A   20300.55393836 -.00000053 +00000-0 -37803-5 0  9990
2 25991 098.9870 273.0217 0010825 088.0343 022.8022 14.16469552078984
Epoch (UTC): 26 October 2020 13:17:40
Eccentricity: 0.0010825
inclination: 98.9870°
perigee height: 829 km
apogee height: 845 km
right ascension of ascending node: 273.0217°
argument of perigee: 88.0343°
revolutions per day: 14.16469552
mean anomaly at epoch: 22.8022°
orbit number at epoch: 7898

The dashed part of the orbit path shows where the satellite is in the earth's shadow,  

DLR